Aeroporto :
LOGIN :

Iscrizione | Disclaimer

   EN    FR    IT 

 










Sommario :    VFR   VFR Marginale   IFR   IFR Intensivo   IFR Molto Intensivo
Visibilità : 
Base nubi : 
>= 8 km
>= 3000ft
5 / 8 km
1000 / 3000 ft
1500m / 5 km
500 / 1000 ft
800 / 1500m
200 / 500 ft
< 800m
< 200 ft
Simboli :   Temporali  Nebbia  Neve Forte  Precipitazioni Forti  Vento > 20 kt
SIGMETs :   Varie  Temporali  Ghiacco  Turbolenza  Onda orograficha  Ceneri Vulcaniche







- Altitudine del aeroporto : 512 ft
- Codice IATA : URO
- Carte del aeroporto


LFOP - Rouen Vallée de Seine

ULTIMO METAR :
  • 210200Z AUTO 26002KT CAVOK 12/11 Q1019

METARs OBSOLETI :
  • 210130Z AUTO 27003KT CAVOK 12/11 Q1019
  • 210100Z AUTO 28005KT CAVOK 14/12 Q1019
  • 210030Z AUTO 28005KT CAVOK 14/13 Q1019
  • 210000Z AUTO 28005KT CAVOK 15/13 Q1019
  • 202330Z AUTO 28006KT CAVOK 15/13 Q1018
  • 202300Z AUTO 29006KT 9999 FEW019 16/13 Q1018

TAF TAF LFOP
Valido dal 20 a 18 ore il 21 a 18 ore UTC


201700Z 2018/2118 28009KT 9999 BKN040
PROB30
TEMPO 2100/2107 BKN005
ATIS : +33 2 35 80 80 34
Met : +33 2 32 86 52 80
Nessun NOTAM noto per questo aeroporto.



MetMap, La meteo Aeronautica in un colpo d'occhio ! - Copyright ORBIFLY Dicembre 2007 - Disclaimer

ORBIFLY MET'MAP TEAM :

Programmazione e sviluppo : Alexandra Zaïnal
Concezione e sviluppo : Baudouin d'Aumeries
Co-Programmazione e sviluppo : Marc-Olivier Méhu
Supporto tecnico e logistico : Manuel Goepfert
Aiuto per la traduzione : Arnaldo La Scala

Contatto : metmap@orbifly.com




FONTI E CREDITI :

   NOAA